• în Republica Moldova
  • Lista ţărilor
  • Pe 7 zile
  • Temperatura apei
  • Hartă satelitară
  • Meteo pe hartă
  • Widget-uri
  • user-avatar
    Intrare

    Meteo pe oră la Malaya Kobylschina

    Astăzi, 16 Noiembrie, Vineri

    Timp Temperatura Precipitaţii Vânt Presiune Umiditate
    00:00 0°C° 0 mm 1 m/s 758 mmHg 88%
    01:00 0°C° 0 mm 1 m/s 759 mmHg 88%
    02:00 0°C° 0 mm 1 m/s 759 mmHg 88%
    03:00 -1°C° 0 mm 1 m/s 759 mmHg 88%
    04:00 -1°C° 0 mm 1 m/s 759 mmHg 87%
    05:00 -1°C° 0 mm 1 m/s 760 mmHg 87%
    06:00 -1°C° 0 mm 1 m/s 760 mmHg 87%
    07:00 -1°C° 0 mm 1 m/s 760 mmHg 86%
    08:00 -1°C° 0 mm 1 m/s 760 mmHg 85%
    09:00 0°C° 0 mm 1 m/s 761 mmHg 80%
    10:00 +1°C° 0 mm 1 m/s 761 mmHg 75%
    11:00 +2°C° 0 mm 1 m/s 761 mmHg 70%
    12:00 +2°C° 0 mm 1 m/s 761 mmHg 71%
    13:00 +2°C° 0 mm 1 m/s 761 mmHg 72%
    14:00 +1°C° 0 mm 0 m/s 761 mmHg 73%
    15:00 +1°C° 0 mm 1 m/s 761 mmHg 76%
    16:00 0°C° 0 mm 1 m/s 761 mmHg 78%
    17:00 -1°C° 0 mm 1 m/s 761 mmHg 80%
    18:00 -1°C° 0 mm 1 m/s 761 mmHg 80%
    19:00 -1°C° 0 mm 1 m/s 761 mmHg 80%
    20:00 -1°C° 0 mm 1 m/s 761 mmHg 80%
    21:00 -1°C° 0 mm 1 m/s 761 mmHg 80%
    22:00 -1°C° 0 mm 1 m/s 761 mmHg 79%
    23:00 -1°C° 0 mm 1 m/s 761 mmHg 79%

    Mâine, 17 Noiembrie, Sâmbătă

    Timp Temperatura Precipitaţii Vânt Presiune Umiditate
    00:00 -1°C° 0 mm 1 m/s 761 mmHg 78%
    01:00 -3°C° 0 mm 2 m/s 760 mmHg 77%
    02:00 -3°C° 0 mm 2 m/s 760 mmHg 76%
    03:00 -3°C° 0 mm 2 m/s 760 mmHg 77%
    04:00 -3°C° 0 mm 2 m/s 759 mmHg 78%
    05:00 -3°C° 0 mm 2 m/s 759 mmHg 78%
    06:00 -3°C° 0 mm 2 m/s 759 mmHg 79%
    07:00 -3°C° 0 mm 2 m/s 758 mmHg 80%
    08:00 -4°C° 0 mm 3 m/s 758 mmHg 80%
    09:00 -2°C° 0 mm 3 m/s 757 mmHg 78%
    10:00 -1°C° 0 mm 3 m/s 757 mmHg 76%
    11:00 -1°C° 0 mm 3 m/s 756 mmHg 73%
    12:00 -1°C° 0.1 mm 4 m/s 755 mmHg 74%
    13:00 -1°C° 0.1 mm 4 m/s 755 mmHg 75%
    14:00 -1°C° 0.1 mm 4 m/s 754 mmHg 75%
    15:00 -1°C° 0.2 mm 4 m/s 753 mmHg 78%
    16:00 -1°C° 0.2 mm 4 m/s 752 mmHg 81%
    17:00 -2°C° 0.2 mm 4 m/s 752 mmHg 84%
    18:00 -2°C° 0 mm 4 m/s 751 mmHg 86%
    19:00 -2°C° 0 mm 4 m/s 750 mmHg 88%
    20:00 -1°C° 0 mm 4 m/s 749 mmHg 90%
    21:00 -1°C° 0.1 mm 4 m/s 748 mmHg 91%
    22:00 -1°C° 0.1 mm 4 m/s 747 mmHg 91%
    23:00 -1°C° 0.1 mm 4 m/s 746 mmHg 92%

    Poimâine, 18 Noiembrie, Duminică

    Timp Temperatura Precipitaţii Vânt Presiune Umiditate
    00:00 -1°C° 0.1 mm 4 m/s 746 mmHg 93%
    01:00 0°C° 0.1 mm 3 m/s 745 mmHg 93%
    02:00 0°C° 0.1 mm 3 m/s 744 mmHg 94%
    03:00 0°C° 0.2 mm 3 m/s 744 mmHg 94%
    04:00 0°C° 0.2 mm 3 m/s 743 mmHg 95%
    05:00 0°C° 0.2 mm 3 m/s 742 mmHg 95%
    06:00 +1°C° 0.2 mm 2 m/s 742 mmHg 96%
    07:00 +1°C° 0.2 mm 2 m/s 742 mmHg 96%
    08:00 +1°C° 0.2 mm 2 m/s 741 mmHg 97%
    09:00 +2°C° 0.1 mm 2 m/s 741 mmHg 96%
    10:00 +2°C° 0.1 mm 2 m/s 741 mmHg 96%
    11:00 +2°C° 0.1 mm 2 m/s 741 mmHg 95%
    12:00 +2°C° 0.3 mm 2 m/s 741 mmHg 95%
    13:00 +2°C° 0.3 mm 2 m/s 741 mmHg 95%
    14:00 +2°C° 0.3 mm 2 m/s 742 mmHg 95%
    15:00 +2°C° 0.2 mm 2 m/s 742 mmHg 94%
    16:00 +1°C° 0.2 mm 3 m/s 742 mmHg 94%
    17:00 0°C° 0.2 mm 3 m/s 742 mmHg 94%
    18:00 0°C° 0.1 mm 3 m/s 742 mmHg 94%
    19:00 0°C° 0.1 mm 3 m/s 743 mmHg 94%
    20:00 0°C° 0.1 mm 3 m/s 743 mmHg 94%
    21:00 0°C° 0.1 mm 3 m/s 744 mmHg 94%
    22:00 0°C° 0.1 mm 3 m/s 744 mmHg 94%
    23:00 0°C° 0.1 mm 3 m/s 745 mmHg 95%

    19 Noiembrie, Luni

    Timp Temperatura Precipitaţii Vânt Presiune Umiditate
    00:00 0°C° 0.1 mm 3 m/s 745 mmHg 95%
    01:00 +1°C° 0.1 mm 2 m/s 745 mmHg 95%
    02:00 +1°C° 0.1 mm 2 m/s 746 mmHg 94%
    03:00 +1°C° 0.1 mm 2 m/s 746 mmHg 94%
    04:00 0°C° 0.1 mm 3 m/s 746 mmHg 94%
    05:00 0°C° 0.1 mm 3 m/s 746 mmHg 94%
    06:00 0°C° 0.2 mm 3 m/s 747 mmHg 93%
    07:00 0°C° 0.2 mm 3 m/s 747 mmHg 93%
    08:00 0°C° 0.2 mm 3 m/s 747 mmHg 93%
    09:00 0°C° 0.1 mm 3 m/s 748 mmHg 92%
    10:00 0°C° 0.1 mm 3 m/s 748 mmHg 92%
    11:00 0°C° 0.1 mm 3 m/s 749 mmHg 91%
    12:00 +1°C° 0.1 mm 2 m/s 749 mmHg 91%
    13:00 +1°C° 0.1 mm 2 m/s 749 mmHg 91%
    14:00 +1°C° 0.1 mm 2 m/s 750 mmHg 91%
    15:00 +1°C° 0 mm 2 m/s 750 mmHg 92%
    16:00 -1°C° 0 mm 2 m/s 750 mmHg 92%
    17:00 -1°C° 0 mm 3 m/s 751 mmHg 93%
    18:00 -1°C° 0 mm 3 m/s 751 mmHg 92%
    19:00 -1°C° 0 mm 3 m/s 751 mmHg 92%
    20:00 -1°C° 0 mm 3 m/s 752 mmHg 91%
    21:00 -2°C° 0 mm 3 m/s 752 mmHg 91%
    22:00 -4°C° 0 mm 3 m/s 753 mmHg 90%
    23:00 -4°C° 0 mm 3 m/s 753 mmHg 90%

    20 Noiembrie, Marţi

    Timp Temperatura Precipitaţii Vânt Presiune Umiditate
    00:00 -5°C° 0 mm 3 m/s 753 mmHg 89%
    01:00 -4°C° 0 mm 2 m/s 754 mmHg 88%
    02:00 -5°C° 0 mm 2 m/s 754 mmHg 87%
    03:00 -5°C° 0 mm 2 m/s 754 mmHg 85%
    04:00 -5°C° 0 mm 2 m/s 754 mmHg 83%
    05:00 -5°C° 0 mm 2 m/s 754 mmHg 82%
    06:00 -5°C° 0 mm 2 m/s 754 mmHg 81%
    07:00 -5°C° 0 mm 2 m/s 754 mmHg 80%
    08:00 -5°C° 0 mm 2 m/s 754 mmHg 79%
    09:00 -4°C° 0 mm 2 m/s 754 mmHg 77%
    10:00 -3°C° 0 mm 2 m/s 754 mmHg 75%
    11:00 -3°C° 0 mm 2 m/s 754 mmHg 72%
    12:00 -2°C° 0 mm 2 m/s 753 mmHg 73%
    13:00 -2°C° 0 mm 2 m/s 753 mmHg 74%
    14:00 -2°C° 0 mm 2 m/s 753 mmHg 75%
    15:00 -3°C° 0 mm 2 m/s 752 mmHg 78%
    16:00 -4°C° 0 mm 2 m/s 752 mmHg 80%
    17:00 -4°C° 0 mm 2 m/s 752 mmHg 82%
    18:00 -4°C° 0 mm 2 m/s 752 mmHg 81%
    19:00 -4°C° 0 mm 2 m/s 752 mmHg 80%
    20:00 -5°C° 0 mm 2 m/s 751 mmHg 79%
    21:00 -5°C° 0 mm 2 m/s 751 mmHg 79%
    22:00 -5°C° 0 mm 2 m/s 751 mmHg 79%
    23:00 -5°C° 0 mm 2 m/s 751 mmHg 79%

    21 Noiembrie, Miercuri

    Timp Temperatura Precipitaţii Vânt Presiune Umiditate
    00:00 -5°C° 0 mm 2 m/s 751 mmHg 79%
    01:00 -5°C° 0 mm 2 m/s 751 mmHg 80%
    02:00 -5°C° 0 mm 2 m/s 750 mmHg 80%
    03:00 -5°C° 0 mm 2 m/s 750 mmHg 81%
    04:00 -5°C° 0 mm 2 m/s 750 mmHg 81%
    05:00 -5°C° 0 mm 2 m/s 749 mmHg 82%
    06:00 -5°C° 0 mm 2 m/s 749 mmHg 83%
    07:00 -5°C° 0 mm 2 m/s 749 mmHg 83%
    08:00 -5°C° 0 mm 2 m/s 749 mmHg 83%
    09:00 -4°C° 0 mm 2 m/s 749 mmHg 81%
    10:00 -5°C° 0 mm 3 m/s 748 mmHg 78%
    11:00 -4°C° 0 mm 3 m/s 748 mmHg 75%
    12:00 -4°C° 0 mm 3 m/s 748 mmHg 75%
    13:00 -4°C° 0 mm 3 m/s 747 mmHg 74%
    14:00 -2°C° 0 mm 3 m/s 747 mmHg 74%
    15:00 -4°C° 0 mm 3 m/s 747 mmHg 75%
    16:00 -5°C° 0 mm 3 m/s 746 mmHg 77%
    17:00 -5°C° 0 mm 3 m/s 746 mmHg 78%
    18:00 -5°C° 0 mm 3 m/s 746 mmHg 76%
    19:00 -5°C° 0 mm 3 m/s 746 mmHg 75%
    20:00 -5°C° 0 mm 3 m/s 745 mmHg 73%
    21:00 -5°C° 0 mm 4 m/s 745 mmHg 72%
    22:00 -5°C° 0 mm 4 m/s 745 mmHg 71%
    23:00 -5°C° 0 mm 4 m/s 745 mmHg 70%
    Arată mai mult